• Em Portugal
  • Lista de países
  • Para 7 dias
  • Temperatura da água
  • Mapas de satélite
  • Mapa do tempo
  • Widgets de tempo
  • user-avatar
    Iniciar Sessão

    Previsão horária em Soroki

    Hoje, 20 Setembro, Quinta-feira

    Tempo Temperatura Precipitação Vento Pressão Humidade
    00:00 +19°C° 0 mm 1 m/s 754 mmHg 54%
    01:00 +19°C° 0 mm 1 m/s 754 mmHg 55%
    02:00 +18°C° 0 mm 1 m/s 754 mmHg 56%
    03:00 +18°C° 0 mm 1 m/s 754 mmHg 57%
    04:00 +18°C° 0 mm 1 m/s 754 mmHg 58%
    05:00 +16°C° 0 mm 1 m/s 754 mmHg 59%
    06:00 +18°C° 0 mm 1 m/s 754 mmHg 56%
    07:00 +20°C° 0 mm 1 m/s 754 mmHg 52%
    08:00 +21°C° 0 mm 1 m/s 754 mmHg 49%
    09:00 +23°C° 0 mm 1 m/s 754 mmHg 45%
    10:00 +25°C° 0 mm 2 m/s 754 mmHg 40%
    11:00 +26°C° 0 mm 2 m/s 754 mmHg 35%
    12:00 +27°C° 0 mm 2 m/s 754 mmHg 33%
    13:00 +28°C° 0 mm 2 m/s 753 mmHg 31%
    14:00 +29°C° 0 mm 2 m/s 753 mmHg 29%
    15:00 +28°C° 0 mm 1 m/s 753 mmHg 32%
    16:00 +28°C° 0 mm 1 m/s 753 mmHg 34%
    17:00 +26°C° 0 mm 0 m/s 752 mmHg 36%
    18:00 +24°C° 0 mm 0 m/s 753 mmHg 38%
    19:00 +22°C° 0 mm 0 m/s 753 mmHg 40%
    20:00 +22°C° 0 mm 1 m/s 753 mmHg 42%
    21:00 +22°C° 0 mm 1 m/s 753 mmHg 43%
    22:00 +19°C° 0 mm 0 m/s 753 mmHg 45%
    23:00 +19°C° 0 mm 0 m/s 753 mmHg 46%

    Amanhã, 21 Setembro, Sexta-feira

    Tempo Temperatura Precipitação Vento Pressão Humidade
    00:00 +20°C° 0 mm 1 m/s 753 mmHg 47%
    01:00 +20°C° 0 mm 1 m/s 753 mmHg 49%
    02:00 +19°C° 0 mm 1 m/s 753 mmHg 50%
    03:00 +19°C° 0 mm 1 m/s 753 mmHg 51%
    04:00 +19°C° 0 mm 1 m/s 753 mmHg 52%
    05:00 +18°C° 0 mm 1 m/s 752 mmHg 54%
    06:00 +19°C° 0 mm 1 m/s 753 mmHg 52%
    07:00 +21°C° 0 mm 1 m/s 753 mmHg 50%
    08:00 +22°C° 0 mm 1 m/s 753 mmHg 48%
    09:00 +24°C° 0 mm 2 m/s 753 mmHg 43%
    10:00 +26°C° 0 mm 2 m/s 753 mmHg 39%
    11:00 +28°C° 0 mm 3 m/s 753 mmHg 34%
    12:00 +28°C° 0 mm 3 m/s 752 mmHg 32%
    13:00 +29°C° 0 mm 3 m/s 752 mmHg 31%
    14:00 +30°C° 0 mm 3 m/s 752 mmHg 29%
    15:00 +29°C° 0 mm 3 m/s 751 mmHg 31%
    16:00 +28°C° 0 mm 2 m/s 751 mmHg 33%
    17:00 +28°C° 0 mm 2 m/s 751 mmHg 36%
    18:00 +26°C° 0 mm 2 m/s 751 mmHg 38%
    19:00 +25°C° 0 mm 2 m/s 751 mmHg 40%
    20:00 +23°C° 0 mm 2 m/s 751 mmHg 42%
    21:00 +21°C° 0 mm 2 m/s 751 mmHg 44%
    22:00 +21°C° 0 mm 2 m/s 751 mmHg 45%
    23:00 +20°C° 0 mm 2 m/s 751 mmHg 46%

    Depois de amanhã, 22 Setembro, Sábado

    Tempo Temperatura Precipitação Vento Pressão Humidade
    00:00 +20°C° 0 mm 2 m/s 751 mmHg 47%
    01:00 +19°C° 0 mm 2 m/s 751 mmHg 49%
    02:00 +19°C° 0 mm 2 m/s 751 mmHg 50%
    03:00 +18°C° 0 mm 2 m/s 751 mmHg 51%
    04:00 +18°C° 0 mm 2 m/s 750 mmHg 52%
    05:00 +17°C° 0 mm 2 m/s 750 mmHg 53%
    06:00 +18°C° 0 mm 2 m/s 750 mmHg 51%
    07:00 +20°C° 0 mm 2 m/s 751 mmHg 49%
    08:00 +21°C° 0 mm 2 m/s 751 mmHg 48%
    09:00 +24°C° 0 mm 3 m/s 750 mmHg 44%
    10:00 +25°C° 0 mm 3 m/s 750 mmHg 39%
    11:00 +27°C° 0 mm 3 m/s 750 mmHg 35%
    12:00 +28°C° 0 mm 3 m/s 750 mmHg 33%
    13:00 +29°C° 0 mm 3 m/s 749 mmHg 32%
    14:00 +30°C° 0 mm 3 m/s 749 mmHg 30%
    15:00 +29°C° 0 mm 3 m/s 749 mmHg 32%
    16:00 +29°C° 0 mm 2 m/s 749 mmHg 34%
    17:00 +28°C° 0 mm 1 m/s 748 mmHg 37%
    18:00 +26°C° 0 mm 2 m/s 749 mmHg 41%
    19:00 +24°C° 0 mm 2 m/s 749 mmHg 44%
    20:00 +23°C° 0 mm 2 m/s 749 mmHg 48%
    21:00 +21°C° 0 mm 3 m/s 749 mmHg 54%
    22:00 +19°C° 0 mm 4 m/s 749 mmHg 59%
    23:00 +17°C° 0 mm 5 m/s 749 mmHg 65%

    23 Setembro, Domingo

    Tempo Temperatura Precipitação Vento Pressão Humidade
    00:00 +16°C° 0 mm 5 m/s 750 mmHg 66%
    01:00 +15°C° 0 mm 6 m/s 750 mmHg 66%
    02:00 +14°C° 0 mm 6 m/s 750 mmHg 67%
    03:00 +13°C° 0.1 mm 6 m/s 750 mmHg 70%
    04:00 +13°C° 0.1 mm 6 m/s 751 mmHg 73%
    05:00 +12°C° 0.1 mm 5 m/s 751 mmHg 76%
    06:00 +12°C° 0 mm 5 m/s 751 mmHg 73%
    07:00 +12°C° 0 mm 5 m/s 752 mmHg 70%
    08:00 +12°C° 0 mm 5 m/s 752 mmHg 67%
    09:00 +14°C° 0 mm 5 m/s 752 mmHg 60%
    10:00 +15°C° 0 mm 4 m/s 753 mmHg 53%
    11:00 +18°C° 0 mm 4 m/s 753 mmHg 46%
    12:00 +18°C° 0 mm 4 m/s 752 mmHg 42%
    13:00 +19°C° 0 mm 4 m/s 752 mmHg 39%
    14:00 +20°C° 0 mm 4 m/s 752 mmHg 35%
    15:00 +20°C° 0 mm 4 m/s 752 mmHg 36%
    16:00 +19°C° 0 mm 3 m/s 752 mmHg 38%
    17:00 +19°C° 0 mm 3 m/s 752 mmHg 39%
    18:00 +18°C° 0 mm 2 m/s 752 mmHg 42%
    19:00 +16°C° 0 mm 1 m/s 752 mmHg 46%
    20:00 +14°C° 0 mm 0 m/s 752 mmHg 49%
    21:00 +15°C° 0 mm 1 m/s 752 mmHg 49%
    22:00 +14°C° 0 mm 1 m/s 751 mmHg 50%
    23:00 +14°C° 0 mm 2 m/s 751 mmHg 50%

    24 Setembro, Segunda-feira

    Tempo Temperatura Precipitação Vento Pressão Humidade
    00:00 +14°C° 0 mm 2 m/s 750 mmHg 50%
    01:00 +13°C° 0 mm 3 m/s 750 mmHg 49%
    02:00 +13°C° 0 mm 4 m/s 749 mmHg 49%
    03:00 +13°C° 0 mm 5 m/s 748 mmHg 48%
    04:00 +13°C° 0 mm 5 m/s 747 mmHg 48%
    05:00 +14°C° 0 mm 6 m/s 746 mmHg 47%
    06:00 +15°C° 0 mm 8 m/s 745 mmHg 50%
    07:00 +16°C° 0 mm 9 m/s 744 mmHg 53%
    08:00 +17°C° 0 mm 10 m/s 744 mmHg 56%
    09:00 +19°C° 0 mm 10 m/s 743 mmHg 55%
    10:00 +22°C° 0 mm 11 m/s 742 mmHg 54%
    11:00 +24°C° 0 mm 11 m/s 741 mmHg 52%
    12:00 +26°C° 0 mm 11 m/s 740 mmHg 49%
    13:00 +28°C° 0 mm 11 m/s 739 mmHg 46%
    14:00 +29°C° 0 mm 11 m/s 738 mmHg 43%
    15:00 +28°C° 0.3 mm 10 m/s 738 mmHg 47%
    16:00 +26°C° 0.3 mm 9 m/s 738 mmHg 51%
    17:00 +24°C° 0.3 mm 8 m/s 738 mmHg 55%
    18:00 +21°C° 0.7 mm 8 m/s 739 mmHg 57%
    19:00 +18°C° 0.7 mm 8 m/s 740 mmHg 58%
    20:00 +16°C° 0.7 mm 8 m/s 741 mmHg 59%
    21:00 +15°C° 0 mm 7 m/s 742 mmHg 60%
    22:00 +14°C° 0 mm 7 m/s 742 mmHg 61%
    23:00 +13°C° 0 mm 6 m/s 743 mmHg 62%

    25 Setembro, Terça-feira

    Tempo Temperatura Precipitação Vento Pressão Humidade
    00:00 +11°C° 0 mm 6 m/s 743 mmHg 60%
    01:00 +11°C° 0 mm 7 m/s 743 mmHg 59%
    02:00 +11°C° 0 mm 7 m/s 744 mmHg 57%
    03:00 +11°C° 0 mm 8 m/s 744 mmHg 57%
    04:00 +10°C° 0 mm 8 m/s 744 mmHg 57%
    05:00 +10°C° 0 mm 8 m/s 744 mmHg 57%
    06:00 +11°C° 0 mm 9 m/s 745 mmHg 56%
    07:00 +11°C° 0 mm 10 m/s 745 mmHg 56%
    08:00 +12°C° 0 mm 11 m/s 746 mmHg 55%
    09:00 +12°C° 0 mm 11 m/s 746 mmHg 52%
    10:00 +13°C° 0 mm 11 m/s 747 mmHg 49%
    11:00 +13°C° 0 mm 10 m/s 747 mmHg 46%
    12:00 +13°C° 0 mm 10 m/s 748 mmHg 45%
    13:00 +13°C° 0 mm 10 m/s 748 mmHg 44%
    14:00 +13°C° 0 mm 9 m/s 748 mmHg 43%
    15:00 +13°C° 0 mm 8 m/s 748 mmHg 44%
    16:00 +12°C° 0 mm 8 m/s 749 mmHg 44%
    17:00 +12°C° 0 mm 7 m/s 749 mmHg 44%
    18:00 +11°C° 0 mm 6 m/s 750 mmHg 47%
    19:00 +10°C° 0 mm 5 m/s 750 mmHg 50%
    20:00 +10°C° 0 mm 4 m/s 751 mmHg 53%
    21:00 +8°C° 0 mm 4 m/s 751 mmHg 56%
    22:00 +8°C° 0 mm 4 m/s 751 mmHg 58%
    23:00 +7°C° 0 mm 4 m/s 752 mmHg 61%
    Mostrar mais